Regional Weather Roundup
Issued by NWS

Home | Current Version | Previous Version | Graphics & Text | Print | Product List | Glossary On
Versions: 1 2 3 4 5 6 7 8 9 10 11 12 13 14 15 16 17 18 19 20 21 22 23 24 25 26 27
000
ASUS45 KCYS 190310
RWRWY

WYOMING REGIONAL WEATHER ROUNDUP
NATIONAL WEATHER SERVICE CHEYENNE WY
900 PM MDT WED APR 18 2018

NOTE:  "FAIR" INDICATES FEW OR NO CLOUDS BELOW 12,000 FEET
WITH NO SIGNIFICANT WEATHER AND/OR OBSTRUCTIONS TO VISIBILITY.

WYZ001-190400-
YELLOWSTONE NATIONAL PARK

CITY           SKY/WX    TMP DP  RH WIND       PRES   REMARKS
LK YELLOWSTONE   N/A     26  10  50 CALM      30.16S
W YELLOWSTONE  NOT AVBL

$$
WYZ002>013-054>058-071-098>099-190400-
NORTHERN WYOMING

CITY           SKY/WX    TMP DP  RH WIND       PRES   REMARKS
JACKSON        FAIR      35  19  52 N10       30.12S WCI  27
CODY           NOT AVBL
GREYBULL       FAIR      47  27  45 CALM      30.15S
WORLAND        FAIR      44  29  55 NE6       30.14R
SHERIDAN       FAIR      37  27  67 SW5       30.21R WCI  33
BUFFALO        FAIR      37  23  56 W6        30.23R WCI  32
GILLETTE       FAIR      35  24  64 SW6       30.23R WCI  30
HULETT         FAIR      37  27  65 E6        30.25R WCI  33
NEWCASTLE      FAIR      41  19  42 NE6       30.26R

$$
WYZ014>020-022>026-101>103-190400-
CENTRAL WYOMING

CITY           SKY/WX    TMP DP  RH WIND       PRES   REMARKS
BIG PINEY      FAIR      36  -3  19 SE7       30.12F WCI  30
PINEDALE       FAIR      34  10  37 E6        30.14S WCI  29
DUBOIS         FAIR      36  12  38 S7        30.13S WCI  30
LANDER         FAIR      42  21  43 SW13      30.11R
RIVERTON       FAIR      43  18  36 N6        30.12R
CASPER         FAIR      40  20  44 E12       30.20R WCI  33
DOUGLAS        FAIR      37  24  59 E10       30.24R WCI  30

$$
WYZ021-027>030-104>119-190400-
SOUTHERN WYOMING

CITY           SKY/WX    TMP DP  RH WIND       PRES   REMARKS
EVANSTON       FAIR      43  11  27 E10       30.07F
KEMMERER       FAIR      37   3  23 CALM      30.10S
FORT BRIDGER   FAIR      42  -1  16 E8        30.11F
ROCK SPRINGS   FAIR      42   7  23 SE12      30.12S
DIXON          FAIR      38  18  44 NE6       30.17S WCI  33
RAWLINS        FAIR      36  11  35 E9        30.18S WCI  29
SARATOGA       FAIR      37  10  32 CALM      30.18S
LARAMIE        FAIR      37  12  35 E14G20    30.22R WCI  28
CHEYENNE       FAIR      36  17  46 E9        30.26R WCI  29
TORRINGTON     FAIR      39  24  55 NE12      30.23R WCI  32
PINE BLUFFS    FAIR      34  19  55 MISG      30.26R

$$




USA.gov is the U.S. government's official web portal to all federal, state and local government web resources and services.